Home > Time Zones > World Clock > Weather > Iran > Yazd > Past weeks

Flag Weather past 2 weeks in Yazd, Iran

Now
52 °F

Fog.


Feels Like: 49 °F
Forecast: 44 / 63 °F
Wind: 7 mph from West

Location: Yazd Airport

Current Time: Nov 26, 2014 at 8:04:55 PM

Latest Report: Nov 26, 2014 at 7:30 PM


Visibility: 3 mi

Pressure: 30.09 "Hg

Humidity: 100%

Dew point: 52 °F

Location of YazdLocation

Historic Weather in Yazd — Graph

°F

Yazd temperature yesterday

Maximum temperature yesterday: 54 °F (at 1:30 PM)
Minimum temperature yesterday: 46 °F (at 12:30 AM)
Average temperature yesterday: 50 °F

Past Weeks' High & Low Weather Summary

 TemperatureHumidityPressure
High73 °F (Nov 22, 2:30 PM)100% (Nov 25, 10:00 AM)30.39 "Hg (Nov 25, 10:00 AM)
Low37 °F (Nov 12, 6:30 AM)8% (Nov 17, 2:30 PM)29.92 "Hg (Nov 23, 2:30 PM)
Average54 °F36%30.20 "Hg
* Reported Nov 11 6:30 PM — Nov 26 7:00 PM, Yazd, Weather by CustomWeather, © 2014

Note: Actual official high and low records may vary slightly from our data, if they occured in-between our weather recording intervals... More about our weather records

Advertising

Yazd weather history for previous 24 hours

 ConditionsComfort  
Time TempWeatherWind HumidityBarometerVisibility
7:00 PM
Nov 26
54 °FFog.2 mph100%30.09 "Hg3 mi
6:30 PM54 °FFog.5 mph100%30.09 "Hg3 mi
6:00 PM55 °FFog.5 mph100%30.09 "Hg3 mi
5:30 PM55 °FFog.5 mph100%30.07 "Hg3 mi
5:00 PM57 °FFog.5 mph88%30.07 "Hg3 mi
4:30 PM59 °FSunny.7 mph77%30.07 "Hg2 mi
4:00 PM61 °FSunny.5 mph55%30.07 "Hg2 mi
3:30 PM61 °FSunny.5 mph59%30.04 "Hg2 mi
2:30 PM61 °FHaze.2 mph59%30.04 "Hg2 mi
1:30 PM59 °FHaze.No wind72%30.04 "Hg2 mi
12:30 PM57 °FHaze.No wind82%30.07 "Hg3 mi
11:30 AM55 °FFog.2 mph94%30.07 "Hg3 mi
10:30 AM52 °FFog.5 mph82%30.09 "Hg3 mi
9:30 AM50 °FFog.No wind94%30.09 "Hg3 mi
9:00 AM46 °FFog.5 mph93%30.09 "Hg2 mi
8:30 AM48 °FFog.No wind87%30.09 "Hg2 mi
8:00 AM46 °FFog.5 mph93%30.09 "Hg2 mi
7:30 AM46 °FFog.9 mph100%30.07 "Hg2 mi
7:00 AM46 °FFog.7 mph100%30.07 "Hg2 mi
6:30 AM46 °FFog.5 mph93%30.04 "Hg2 mi
6:00 AM46 °FFog.5 mph100%30.04 "Hg2 mi
5:30 AM46 °FFog.5 mph100%30.01 "Hg2 mi
4:30 AM46 °FFog.2 mph100%30.04 "Hg2 mi
3:30 AM46 °FFog.2 mph100%30.01 "Hg2 mi
2:30 AM46 °FFog.2 mph100%30.04 "Hg2 mi
1:30 AM46 °FFog.5 mph100%30.04 "Hg2 mi
12:30 AM46 °FLight rain. Mostly cloudy.12 mph100%30.09 "Hg3 mi
11:30 PM
Nov 25
48 °FHeavy rain. Mostly cloudy.9 mph100%30.07 "Hg2 mi
11:00 PM48 °FLight rain. Mostly cloudy.9 mph100%30.07 "Hg3 mi
10:30 PM48 °FLight rain. Mostly cloudy.7 mph100%30.07 "Hg4 mi
10:00 PM48 °FFog.7 mph100%30.07 "Hg3 mi
9:30 PM50 °FFog.5 mph100%30.07 "Hg2 mi
9:00 PM50 °FLight rain. Mostly cloudy.5 mph100%30.07 "Hg3 mi
8:30 PM50 °FLight rain. Mostly cloudy.5 mph100%30.07 "Hg3 mi
8:00 PM50 °FLight rain. Mostly cloudy.2 mph100%30.07 "Hg3 mi
Weather by CustomWeather, © 2014

See weather overviewHow to use our weather pages